Wetterstation Hallschlag, 537 m . NN
Wetterdaten: Donnerstag, 23.11.2006
Datum Zeit Temp. A. Temp. 2 Feuchte A. Luftdruck Regen Wind Richtung Richtung Sonnenschein Helligkeit T Regen Taupunkt Windchill
23.11.2006 00:09 3,3 C 3,0 C 94 % 997 hPa 0,0 l/m 34,4 km/h (5 Bft) S-SW45 205 0 min 0 lux 0,00 min 2,4 C -9,9 C
23.11.2006 00:24 3,3 C 3,1 C 94 % 997 hPa 0,0 l/m 25,7 km/h (4 Bft) SW67.5 230 0 min 0 lux 0,00 min 2,4 C -7,5 C
23.11.2006 00:39 3,3 C 3,2 C 94 % 996 hPa 0,0 l/m 28,8 km/h (4 Bft) SW67.5 220 0 min 0 lux 0,00 min 2,4 C -8,4 C
23.11.2006 00:54 3,3 C 3,2 C 95 % 996 hPa 0,0 l/m 28,6 km/h (4 Bft) S-SW67.5 205 0 min 0 lux 0,00 min 2,6 C -8,4 C
23.11.2006 01:09 3,3 C 3,2 C 95 % 996 hPa 0,0 l/m 40,8 km/h (6 Bft) SW45 220 0 min 0 lux 0,00 min 2,6 C -11,2 C
23.11.2006 01:24 3,3 C 3,2 C 95 % 996 hPa 0,0 l/m 33,9 km/h (5 Bft) SW45 215 0 min 0 lux 0,00 min 2,6 C -9,8 C
23.11.2006 01:39 3,4 C 3,2 C 95 % 996 hPa 0,0 l/m 30,4 km/h (5 Bft) S-SW45 205 0 min 0 lux 0,00 min 2,7 C -8,7 C
23.11.2006 01:54 3,4 C 3,3 C 95 % 996 hPa 0,0 l/m 37,7 km/h (5 Bft) SW45 220 0 min 0 lux 0,00 min 2,7 C -10,4 C
23.11.2006 02:09 3,5 C 3,3 C 95 % 996 hPa 0,0 l/m 29,0 km/h (5 Bft) S-SW45 205 0 min 0 lux 0,00 min 2,8 C -8,2 C
23.11.2006 02:24 3,6 C 3,5 C 95 % 995 hPa 0,0 l/m 32,2 km/h (5 Bft) SW45 215 0 min 0 lux 0,00 min 2,9 C -8,9 C
23.11.2006 02:39 3,7 C 3,6 C 95 % 995 hPa 0,0 l/m 25,6 km/h (4 Bft) SW45 215 0 min 0 lux 0,00 min 3,0 C -6,9 C
23.11.2006 02:54 3,7 C 3,6 C 95 % 995 hPa 0,0 l/m 27,3 km/h (4 Bft) SW45 215 0 min 0 lux 0,00 min 3,0 C -7,4 C
23.11.2006 03:09 3,9 C 3,7 C 95 % 995 hPa 0,0 l/m 25,1 km/h (4 Bft) S-SW22.5 205 0 min 0 lux 0,00 min 3,2 C -6,5 C
23.11.2006 03:24 4,0 C 3,9 C 96 % 995 hPa 0,0 l/m 21,6 km/h (4 Bft) S-SW67.5 195 0 min 0 lux 0,00 min 3,4 C -5,1 C
23.11.2006 03:39 4,1 C 3,9 C 96 % 995 hPa 0,0 l/m 29,0 km/h (5 Bft) S-SW45 210 0 min 0 lux 0,00 min 3,5 C -7,4 C
23.11.2006 03:54 3,9 C 3,9 C 95 % 995 hPa 0,0 l/m 26,6 km/h (4 Bft) S45 190 0 min 0 lux 0,00 min 3,2 C -6,9 C
23.11.2006 04:09 4,0 C 4,0 C 96 % 994 hPa 0,0 l/m 22,2 km/h (4 Bft) S-SW45 200 0 min 0 lux 0,00 min 3,4 C -5,3 C
23.11.2006 04:24 4,1 C 4,1 C 96 % 994 hPa 0,0 l/m 31,4 km/h (5 Bft) S-SW45 205 0 min 0 lux 0,00 min 3,5 C -8,0 C
23.11.2006 04:39 4,2 C 4,1 C 96 % 994 hPa 0,0 l/m 31,3 km/h (5 Bft) W-SW45 240 0 min 0 lux 0,00 min 3,6 C -7,8 C
23.11.2006 04:54 4,3 C 4,2 C 96 % 994 hPa 0,0 l/m 32,4 km/h (5 Bft) SW67.5 220 0 min 0 lux 0,00 min 3,7 C -8,0 C
23.11.2006 05:09 4,3 C 4,2 C 96 % 993 hPa 0,0 l/m 35,4 km/h (5 Bft) S45 190 0 min 0 lux 0,00 min 3,7 C -8,7 C
23.11.2006 05:24 4,5 C 4,4 C 96 % 993 hPa 0,0 l/m 44,4 km/h (6 Bft) S-SW45 210 0 min 0 lux 0,00 min 3,9 C -10,0 C
23.11.2006 05:39 4,3 C 4,2 C 96 % 993 hPa 0,3 l/m 34,2 km/h (5 Bft) S-SW45 210 0 min 0 lux 15,00 min 3,7 C -8,4 C
23.11.2006 05:54 4,4 C 4,3 C 96 % 993 hPa 0,0 l/m 34,0 km/h (5 Bft) S22.5 190 0 min 0 lux 0,00 min 3,8 C -8,2 C
23.11.2006 06:09 4,6 C 4,5 C 96 % 993 hPa 0,3 l/m 33,2 km/h (5 Bft) S-SW45 195 0 min 0 lux 15,00 min 4,0 C -7,7 C
23.11.2006 06:24 4,7 C 4,7 C 96 % 993 hPa 0,0 l/m 30,6 km/h (5 Bft) S-SW45 195 0 min 0 lux 0,00 min 4,1 C -7,0 C
23.11.2006 06:39 4,9 C 4,8 C 96 % 993 hPa 0,3 l/m 36,0 km/h (5 Bft) S22.5 190 0 min 0 lux 15,00 min 4,3 C -7,9 C
23.11.2006 06:54 5,1 C 5,0 C 96 % 993 hPa 0,3 l/m 33,9 km/h (5 Bft) S22.5 190 0 min 0 lux 15,00 min 4,5 C -7,2 C
23.11.2006 07:09 5,2 C 5,1 C 96 % 992 hPa 0,3 l/m 29,9 km/h (5 Bft) S45 185 0 min 0 lux 15,00 min 4,6 C -6,1 C
23.11.2006 07:24 5,6 C 5,3 C 96 % 992 hPa 0,0 l/m 29,3 km/h (5 Bft) S45 185 0 min 0 lux 0,00 min 5,0 C -5,4 C
23.11.2006 07:39 5,7 C 5,5 C 96 % 992 hPa 0,0 l/m 36,2 km/h (5 Bft) S-SW67.5 210 0 min 0 lux 0,00 min 5,1 C -6,8 C
23.11.2006 08:00 6,0 C 5,8 C 96 % 992 hPa 0,0 l/m 34,9 km/h (5 Bft) S-SW45 205 0 min 76 lux 0,00 min 5,4 C -6,1 C
23.11.2006 08:15 6,2 C 6,0 C 96 % 992 hPa 0,0 l/m 31,6 km/h (5 Bft) S-SW45 200 0 min 180 lux 0,00 min 5,6 C -5,1 C
23.11.2006 08:30 6,3 C 6,1 C 96 % 992 hPa 0,0 l/m 33,9 km/h (5 Bft) S-SW45 195 0 min 303 lux 0,00 min 5,7 C -5,4 C
23.11.2006 08:45 6,4 C 6,3 C 96 % 992 hPa 0,0 l/m 41,8 km/h (6 Bft) S-SW45 200 0 min 797 lux 0,00 min 5,8 C -6,7 C
23.11.2006 09:00 6,5 C 6,4 C 96 % 992 hPa 0,0 l/m 31,7 km/h (5 Bft) SW45 215 0 min 993 lux 0,00 min 5,9 C -4,7 C
23.11.2006 09:15 6,6 C 6,5 C 96 % 992 hPa 0,0 l/m 30,7 km/h (5 Bft) SW45 215 0 min 1,61 klux 0,00 min 6,0 C -4,3 C
23.11.2006 09:30 6,8 C 6,7 C 96 % 992 hPa 0,0 l/m 36,1 km/h (5 Bft) S-SW67.5 195 0 min 3,46 klux 0,00 min 6,2 C -5,2 C
23.11.2006 09:45 7,0 C 6,8 C 97 % 991 hPa 0,0 l/m 39,5 km/h (6 Bft) S-SW45 195 0 min 3,35 klux 0,00 min 6,6 C -5,5 C
23.11.2006 10:00 7,2 C 7,0 C 97 % 991 hPa 0,0 l/m 34,7 km/h (5 Bft) S-SW45 200 0 min 4,20 klux 0,00 min 6,8 C -4,3 C
23.11.2006 10:15 7,4 C 7,2 C 97 % 992 hPa 0,0 l/m 33,7 km/h (5 Bft) S45 190 0 min 5,94 klux 0,00 min 7,0 C -3,8 C
23.11.2006 10:30 7,8 C 7,5 C 96 % 992 hPa 0,0 l/m 38,9 km/h (6 Bft) S-SW45 200 0 min 8,78 klux 0,00 min 7,2 C -4,2 C
23.11.2006 10:45 8,1 C 7,8 C 96 % 991 hPa 0,0 l/m 36,8 km/h (5 Bft) S-SW67.5 200 0 min 11,3 klux 0,00 min 7,5 C -3,4 C
23.11.2006 11:00 8,4 C 8,0 C 96 % 992 hPa 0,0 l/m 38,4 km/h (5 Bft) S-SW45 195 0 min 9,2 klux 0,00 min 7,8 C -3,2 C
23.11.2006 11:15 8,7 C 8,5 C 96 % 992 hPa 0,0 l/m 35,0 km/h (5 Bft) S-SW67.5 200 0 min 17,8 klux 0,00 min 8,1 C -2,2 C
23.11.2006 11:30 9,2 C 8,8 C 95 % 991 hPa 0,0 l/m 39,4 km/h (6 Bft) S-SW45 205 0 min 14,6 klux 0,00 min 8,4 C -2,2 C
23.11.2006 11:45 9,5 C 9,2 C 95 % 991 hPa 0,0 l/m 43,4 km/h (6 Bft) SW45 215 0 min 18,5 klux 0,00 min 8,7 C -2,3 C
23.11.2006 12:00 9,8 C 9,4 C 95 % 991 hPa 0,3 l/m 36,4 km/h (5 Bft) SW45 215 0 min 17,5 klux 15,00 min 9,0 C -0,8 C
23.11.2006 12:15 9,9 C 9,6 C 94 % 991 hPa 0,0 l/m 36,6 km/h (5 Bft) SW67.5 220 0 min 13,1 klux 0,00 min 9,0 C -0,7 C
23.11.2006 12:30 10,0 C 9,6 C 94 % 991 hPa 0,3 l/m 44,2 km/h (6 Bft) S-SW45 205 0 min 9,3 klux 15,00 min 9,1 C -1,7 C
23.11.2006 12:45 10,2 C 10,0 C 94 % 991 hPa 0,0 l/m 35,7 km/h (5 Bft) S-SW67.5 205 0 min 14,3 klux 0,00 min 9,3 C -0,1 C
23.11.2006 13:01 10,6 C 10,2 C 94 % 991 hPa 0,3 l/m 32,8 km/h (5 Bft) SW45 225 0 min 13,3 klux 16,00 min 9,7 C 1,0 C
23.11.2006 13:15 10,7 C 10,3 C 94 % 991 hPa 0,3 l/m 46,0 km/h (6 Bft) S-SW45 210 0 min 12,3 klux 14,00 min 9,8 C -0,8 C
23.11.2006 13:30 10,8 C 10,3 C 94 % 991 hPa 0,0 l/m 33,0 km/h (5 Bft) S-SW45 210 0 min 8,79 klux 0,00 min 9,9 C 1,2 C
23.11.2006 13:45 10,6 C 10,3 C 94 % 991 hPa 0,0 l/m 33,4 km/h (5 Bft) SW45 230 0 min 6,37 klux 0,00 min 9,7 C 0,8 C
23.11.2006 14:00 10,6 C 10,3 C 94 % 991 hPa 0,3 l/m 37,9 km/h (5 Bft) SW67.5 230 0 min 4,53 klux 15,00 min 9,7 C 0,1 C
23.11.2006 14:15 10,6 C 10,4 C 94 % 991 hPa 0,3 l/m 34,6 km/h (5 Bft) SW45 230 0 min 4,45 klux 15,00 min 9,7 C 0,6 C
23.11.2006 14:30 10,8 C 10,4 C 95 % 992 hPa 0,3 l/m 27,4 km/h (4 Bft) SW45 230 0 min 4,91 klux 15,00 min 10,0 C 2,3 C
23.11.2006 14:45 10,8 C 10,5 C 95 % 991 hPa 0,3 l/m 39,6 km/h (6 Bft) SW45 230 0 min 4,91 klux 15,00 min 10,0 C 0,1 C
23.11.2006 15:00 10,8 C 10,5 C 94 % 991 hPa 0,0 l/m 39,9 km/h (6 Bft) SW67.5 225 0 min 3,72 klux 0,00 min 9,9 C 0,1 C
23.11.2006 15:15 10,9 C 10,5 C 94 % 991 hPa 0,0 l/m 36,9 km/h (5 Bft) SW45 225 0 min 3,05 klux 0,00 min 10,0 C 0,7 C
23.11.2006 15:30 10,8 C 10,5 C 94 % 992 hPa 0,0 l/m 36,7 km/h (5 Bft) SW67.5 215 0 min 2,54 klux 0,00 min 9,9 C 0,6 C
23.11.2006 15:45 10,8 C 10,5 C 94 % 992 hPa 0,3 l/m 35,0 km/h (5 Bft) SW45 225 0 min 1,61 klux 15,00 min 9,9 C 0,8 C
23.11.2006 16:00 10,8 C 10,5 C 95 % 992 hPa 0,3 l/m 36,7 km/h (5 Bft) SW45 215 0 min 1,74 klux 15,00 min 10,0 C 0,6 C
23.11.2006 16:15 10,7 C 10,4 C 95 % 992 hPa 0,3 l/m 27,8 km/h (4 Bft) SW45 225 0 min 618 lux 15,00 min 9,9 C 2,1 C
23.11.2006 16:30 10,6 C 10,4 C 95 % 992 hPa 0,6 l/m 33,4 km/h (5 Bft) SW22.5 230 0 min 434 lux 15,00 min 9,8 C 0,8 C
23.11.2006 16:45 10,5 C 10,3 C 95 % 992 hPa 1,2 l/m 27,6 km/h (4 Bft) W-SW45 245 0 min 140 lux 15,00 min 9,7 C 1,9 C
23.11.2006 17:00 10,4 C 10,3 C 95 % 992 hPa 0,6 l/m 37,5 km/h (5 Bft) SW45 225 0 min 59 lux 15,00 min 9,6 C -0,1 C
23.11.2006 17:15 10,5 C 10,3 C 95 % 992 hPa 0,0 l/m 37,5 km/h (5 Bft) SW45 225 0 min 15 lux 0,00 min 9,7 C 0,0 C
23.11.2006 17:30 10,5 C 10,3 C 95 % 992 hPa 0,0 l/m 40,0 km/h (6 Bft) SW45 225 0 min 1 lux 0,00 min 9,7 C -0,4 C
23.11.2006 17:45 10,5 C 10,3 C 95 % 992 hPa 0,3 l/m 34,5 km/h (5 Bft) SW67.5 230 0 min 0 lux 15,00 min 9,7 C 0,5 C
23.11.2006 18:01 10,5 C 10,3 C 95 % 992 hPa 0,0 l/m 29,3 km/h (5 Bft) SW67.5 235 0 min 0 lux 0,00 min 9,7 C 1,5 C
23.11.2006 18:15 10,4 C 10,3 C 95 % 992 hPa 0,3 l/m 33,7 km/h (5 Bft) SW45 215 0 min 0 lux 14,00 min 9,6 C 0,5 C
23.11.2006 18:30 10,5 C 10,3 C 95 % 993 hPa 0,0 l/m 40,3 km/h (6 Bft) S-SW45 210 0 min 0 lux 0,00 min 9,7 C -0,4 C
23.11.2006 18:45 10,6 C 10,3 C 95 % 993 hPa 0,0 l/m 40,4 km/h (6 Bft) SW45 215 0 min 0 lux 0,00 min 9,8 C -0,3 C
23.11.2006 19:00 10,6 C 10,0 C 95 % 993 hPa 0,0 l/m 26,5 km/h (4 Bft) SW45 230 0 min 0 lux 0,00 min 9,8 C 2,3 C
23.11.2006 19:15 9,3 C 9,0 C 93 % 993 hPa 1,2 l/m 26,5 km/h (4 Bft) SW45 230 0 min 0 lux 15,00 min 8,2 C 0,5 C
23.11.2006 19:30 8,6 C 8,4 C 93 % 993 hPa 0,3 l/m 26,5 km/h (4 Bft) SW45 230 0 min 0 lux 15,00 min 7,5 C -0,5 C
23.11.2006 19:45 8,3 C 8,2 C 94 % 994 hPa 0,3 l/m 17,7 km/h (3 Bft) W45 270 0 min 0 lux 15,00 min 7,4 C 1,9 C
23.11.2006 20:00 8,1 C 7,8 C 93 % 994 hPa 0,9 l/m 21,4 km/h (4 Bft) W22.5 260 0 min 0 lux 15,00 min 7,0 C 0,4 C
23.11.2006 20:15 7,9 C 7,5 C 94 % 994 hPa 0,9 l/m 17,3 km/h (3 Bft) W-SW45 255 0 min 0 lux 15,00 min 7,0 C 1,6 C
23.11.2006 20:30 7,7 C 7,3 C 94 % 994 hPa 0,6 l/m 17,3 km/h (3 Bft) W-SW45 255 0 min 0 lux 15,00 min 6,8 C 1,3 C
23.11.2006 20:45 7,6 C 7,3 C 94 % 995 hPa 0,0 l/m 17,9 km/h (3 Bft) W-SW22.5 255 0 min 0 lux 0,00 min 6,7 C 1,0 C
23.11.2006 21:00 7,6 C 7,3 C 94 % 995 hPa 0,3 l/m 17,9 km/h (3 Bft) W-SW22.5 255 0 min 0 lux 15,00 min 6,7 C 1,0 C
23.11.2006 21:15 7,6 C 7,3 C 95 % 995 hPa 0,3 l/m 17,9 km/h (3 Bft) W-SW22.5 255 0 min 0 lux 15,00 min 6,9 C 1,0 C
23.11.2006 21:30 7,6 C 7,3 C 95 % 995 hPa 0,0 l/m 17,9 km/h (3 Bft) W-SW22.5 255 0 min 0 lux 0,00 min 6,9 C 1,0 C
23.11.2006 21:45 7,6 C 7,3 C 95 % 995 hPa 0,3 l/m 17,9 km/h (3 Bft) W-SW22.5 255 0 min 0 lux 15,00 min 6,9 C 1,0 C
23.11.2006 22:00 7,6 C 7,3 C 95 % 996 hPa 0,3 l/m 17,9 km/h (3 Bft) W-SW22.5 255 0 min 0 lux 15,00 min 6,9 C 1,0 C
23.11.2006 22:15 7,5 C 7,2 C 95 % 996 hPa 0,3 l/m 20,2 km/h (4 Bft) W-SW45 240 0 min 0 lux 15,00 min 6,8 C -0,0 C
23.11.2006 22:30 7,4 C 7,0 C 95 % 996 hPa 0,0 l/m 16,5 km/h (3 Bft) W-SW45 245 0 min 0 lux 0,00 min 6,7 C 1,3 C
23.11.2006 22:46 7,1 C 6,7 C 94 % 996 hPa 0,0 l/m 16,8 km/h (3 Bft) W-SW45 250 0 min 0 lux 0,00 min 6,2 C 0,8 C
23.11.2006 23:01 6,8 C 6,4 C 94 % 996 hPa 0,0 l/m 19,6 km/h (3 Bft) W-SW45 250 0 min 0 lux 0,00 min 5,9 C -0,7 C
23.11.2006 23:15 6,5 C 6,2 C 94 % 997 hPa 0,0 l/m 18,0 km/h (3 Bft) W-SW22.5 245 0 min 0 lux 0,00 min 5,6 C -0,4 C
23.11.2006 23:30 6,4 C 5,9 C 94 % 997 hPa 0,0 l/m 18,0 km/h (3 Bft) W-SW22.5 245 0 min 0 lux 0,00 min 5,5 C -0,6 C
23.11.2006 23:45 6,2 C 5,8 C 95 % 997 hPa 0,0 l/m 18,0 km/h (3 Bft) W-SW22.5 245 0 min 0 lux 0,00 min 5,5 C -0,8 C
_ Min-Zeit 00:09 00:09 19:15 09:45 - 22:30 - - - - - 00:09 01:09
Minimum _ 3,3 C 3,0 C 93 % 991 hPa - 16,5 km/h (3 Bft) - - - - - 2,4 C -11,2 C
_ Max-Zeit 15:15 14:45 09:45 00:09 16:45 13:15 - - 00:09 11:45 13:01 14:30 14:30
Maximum _ 10,9 C 10,5 C 97 % 997 hPa 1,2 l/m 46,0 km/h
S-SW (6 Bft)
- - 0 min 18,5 klux 16,00 min 10,0 C 2,3 C
Durchschnitt _ 7,3 C 7,1 C 95 % 993 hPa #13,0 l/m 31,0 km/h (5 Bft) SW - #0 min. 2,41 klux #7:59 h 6,6 C -3,0 C